Weather History for Indianapolis, IN

Change the Weather History Date:

Monday, November 28, 2011

  Actual Average (KEYE) Record (KEYE)
Temperature  
Mean Temperature 37 °F 38 °F  
Max Temperature 39 °F 46 °F 66 °F (1998)
Min Temperature 35 °F 31 °F 18 °F (2013)
Degree Days  
Heating Degree Days 28 27  
Month to date heating degree days 577  
Since 1 July heating degree days 969  
Cooling Degree Days 0 0  
Month to date cooling degree days 0  
Year to date cooling degree days 1058  
Moisture  
Dew Point 36 °F    
Average Humidity 92    
Maximum Humidity 93    
Minimum Humidity 89    
Precipitation  
Precipitation 0.18 in 0.12 in 0.55 in (2005)
Month to date precipitation 3.46  
Year to date precipitation 37.47  
Sea Level Pressure  
Sea Level Pressure 29.96 in    
Wind  
Wind Speed 13 mph (NNE)    
Max Wind Speed 20 mph    
Max Gust Speed 29 mph    
Visibility 10 miles    
Events Rain    
T = Trace of Precipitation, MM = Missing Value Source: NWS Daily Summary

Daily Weather History Graph

Daily Weather History Graph

Search for Another Location

Airport:

Trip Planner

Search our weather history database for the weather conditions in past years. The results will help you decide how hot, cold, wet, or windy it might be!

Date:

Astronomy

Nov. 28, 2011 Rise Set
Actual Time 7:44 AM EST 5:21 PM EST
Civil Twilight 7:14 AM EST 5:51 PM EST
Nautical Twilight 6:41 AM EST 6:24 PM EST
Astronomical Twilight 6:08 AM EST 6:57 PM EST
Moon 10:53 AM EST (11/28) 9:07 PM EST (11/28)
Length of Visible Light 10h 36m
Length of Day
9h 36m
Waxing Crescent, 15% of the Moon is Illuminated
Nov 28
Waxing Crescent
Dec 2
First Quarter
Dec 10
Full
Dec 17
Last Quarter
Dec 24
New

Hourly Weather History & Observations

Time (EST) Temp. Windchill Dew Point Humidity Pressure Visibility Wind Dir Wind Speed Gust Speed Precip Events Conditions
12:15 AM 37.4 °F 30.8 °F 35.2 °F 92% 30.04 in 10.0 mi North 9.2 mph - N/A   Light Drizzle
12:35 AM 37.0 °F 28.9 °F 34.9 °F 92% 30.03 in 10.0 mi North 12.7 mph - N/A   Light Drizzle
12:55 AM 36.7 °F 29.4 °F 34.7 °F 93% 30.03 in 10.0 mi North 10.4 mph - 0.01 in Rain Light Rain
1:15 AM 36.9 °F 29.1 °F 34.9 °F 93% 30.04 in 10.0 mi North 11.5 mph - N/A Rain Light Rain
1:35 AM 37.0 °F 29.3 °F 35.1 °F 93% 30.03 in 10.0 mi North 11.5 mph - 0.01 in Rain Light Rain
1:55 AM 36.9 °F 28.7 °F 34.9 °F 93% 30.02 in 10.0 mi North 12.7 mph 18.4 mph 0.01 in Rain Light Rain
2:15 AM 37.0 °F 28.9 °F 35.1 °F 93% 30.02 in 10.0 mi North 12.7 mph 18.4 mph N/A   Light Drizzle
2:35 AM 37.4 °F 28.9 °F 35.2 °F 92% 30.03 in 10.0 mi North 13.8 mph 19.6 mph N/A   Light Drizzle
2:55 AM 37.4 °F 29.8 °F 35.4 °F 93% 30.04 in 10.0 mi North 11.5 mph 17.3 mph N/A   Light Drizzle
3:15 AM 37.4 °F 29.3 °F 35.1 °F 91% 30.04 in 10.0 mi North 12.7 mph - N/A Rain Rain
3:35 AM 37.0 °F 28.9 °F 35.1 °F 93% 30.04 in 7.0 mi NNE 12.7 mph - 0.02 in Rain Rain
3:55 AM 36.9 °F 29.6 °F 34.9 °F 93% 30.04 in 10.0 mi North 10.4 mph 17.3 mph 0.02 in Rain Light Rain
4:15 AM 36.9 °F 29.1 °F 34.9 °F 93% 30.04 in 10.0 mi North 11.5 mph - 0.01 in Rain Light Rain
4:35 AM 36.0 °F 27.5 °F 34.0 °F 93% 30.04 in 7.0 mi North 12.7 mph - 0.02 in Rain Rain
4:55 AM 35.6 °F 27.5 °F 33.8 °F 93% 30.03 in 7.0 mi NNE 11.5 mph 17.3 mph 0.02 in Rain Light Rain
5:15 AM 35.8 °F 27.8 °F 34.0 °F 93% 30.02 in 10.0 mi NNE 11.5 mph - N/A Rain Light Rain
5:35 AM 36.0 °F 28.5 °F 34.2 °F 93% 30.03 in 10.0 mi NNE 10.4 mph 16.1 mph N/A   Overcast
5:55 AM 36.1 °F 28.2 °F 34.3 °F 93% 30.02 in 10.0 mi NNE 11.5 mph 16.1 mph N/A   Overcast
6:15 AM 36.0 °F 28.0 °F 33.8 °F 92% 30.03 in 10.0 mi NNE 11.5 mph 17.3 mph N/A   Overcast
6:35 AM 36.0 °F 29.0 °F 33.8 °F 92% 30.03 in 10.0 mi NNE 9.2 mph - N/A   Overcast
6:55 AM 36.1 °F 29.3 °F 34.0 °F 92% 30.03 in 10.0 mi NNE 9.2 mph - N/A   Overcast
7:35 AM 36.5 °F 29.2 °F 34.2 °F 91% 30.05 in 10.0 mi NNE 10.4 mph - N/A   Overcast
7:55 AM 36.5 °F 29.7 °F 34.2 °F 91% 30.05 in 10.0 mi NNE 9.2 mph - N/A   Overcast
8:15 AM 36.5 °F 29.2 °F 34.2 °F 91% 30.03 in 10.0 mi NNE 10.4 mph 16.1 mph N/A   Overcast
8:35 AM 36.5 °F 29.2 °F 34.3 °F 92% 30.03 in 10.0 mi NNE 10.4 mph - N/A   Overcast
8:55 AM 36.7 °F 29.9 °F 34.7 °F 93% 30.03 in 10.0 mi NNE 9.2 mph 16.1 mph N/A   Overcast
9:35 AM 37.4 °F 28.2 °F 35.1 °F 91% 30.03 in 10.0 mi NE 16.1 mph - N/A   Overcast
9:55 AM 37.4 °F 28.9 °F 35.4 °F 93% 30.04 in 10.0 mi NNE 13.8 mph 17.3 mph N/A   Overcast
10:15 AM 37.8 °F 28.6 °F 35.6 °F 92% 30.02 in 10.0 mi NE 16.1 mph - N/A   Overcast
10:35 AM 37.9 °F 28.9 °F 35.6 °F 91% 30.01 in 10.0 mi NNE 16.1 mph - N/A   Overcast
10:55 AM 38.3 °F 30.1 °F 35.6 °F 90% 30.00 in 10.0 mi NNE 13.8 mph - N/A   Overcast
11:15 AM 38.7 °F 30.1 °F 36.3 °F 91% 29.99 in 10.0 mi NNE 15.0 mph - N/A   Overcast
11:35 AM 38.8 °F 30.4 °F 36.5 °F 91% 29.97 in 10.0 mi NNE 15.0 mph 21.9 mph N/A   Overcast
11:55 AM 38.8 °F 30.8 °F 36.1 °F 90% 29.97 in 10.0 mi NE 13.8 mph 20.7 mph N/A   Overcast
12:15 PM 39.2 °F 31.2 °F 36.5 °F 90% 29.96 in 10.0 mi NNE 13.8 mph 23.0 mph N/A   Overcast
12:35 PM 39.2 °F 30.8 °F 36.5 °F 90% 29.95 in 10.0 mi NNE 15.0 mph 20.7 mph N/A   Overcast
12:55 PM 39.2 °F 30.8 °F 36.3 °F 89% 29.96 in 10.0 mi NNE 15.0 mph 18.4 mph N/A   Overcast
1:15 PM 39.6 °F 32.1 °F 36.7 °F 89% 29.94 in 10.0 mi NNE 12.7 mph - N/A   Overcast
1:55 PM 39.4 °F 31.4 °F 36.7 °F 90% 29.93 in 10.0 mi NNE 13.8 mph - N/A   Light Drizzle
2:15 PM 39.4 °F 30.7 °F 36.7 °F 90% 29.92 in 10.0 mi NNE 16.1 mph 21.9 mph N/A   Light Drizzle
2:35 PM 39.4 °F 31.1 °F 36.7 °F 90% 29.91 in 10.0 mi NNE 15.0 mph 18.4 mph N/A   Drizzle
2:55 PM 39.4 °F 31.4 °F 36.9 °F 91% 29.90 in 7.0 mi NNE 13.8 mph 23.0 mph N/A   Drizzle
3:15 PM 39.4 °F 31.4 °F 37.0 °F 91% 29.90 in 7.0 mi NNE 13.8 mph 20.7 mph 0.01 in Rain Light Rain
3:55 PM 39.2 °F 30.5 °F 37.0 °F 92% 29.88 in 10.0 mi NNE 16.1 mph 20.7 mph 0.03 in Rain Light Rain
4:15 PM 39.2 °F 29.8 °F 37.0 °F 92% 29.89 in 10.0 mi NNE 18.4 mph - N/A Rain Light Rain
4:35 PM 39.4 °F 29.8 °F 37.4 °F 93% 29.88 in 10.0 mi NE 19.6 mph 24.2 mph N/A   Light Drizzle
4:55 PM 39.2 °F 30.8 °F 37.0 °F 92% 29.88 in 10.0 mi NE 15.0 mph 21.9 mph N/A   Light Drizzle
5:15 PM 39.4 °F 31.4 °F 37.4 °F 93% 29.88 in 10.0 mi NE 13.8 mph 23.0 mph 0.01 in Rain Light Rain
5:35 PM 39.2 °F 30.5 °F 37.4 °F 93% 29.88 in 10.0 mi NE 16.1 mph 23.0 mph 0.01 in   Light Drizzle
5:55 PM 39.2 °F 30.8 °F 37.4 °F 93% 29.87 in 10.0 mi NNE 15.0 mph 24.2 mph 0.01 in   Overcast
6:15 PM 39.2 °F 30.2 °F 37.2 °F 93% 29.85 in 10.0 mi NNE 17.3 mph 21.9 mph N/A   Drizzle
6:35 PM 39.0 °F 30.3 °F 37.0 °F 93% 29.86 in 7.0 mi NNE 16.1 mph 24.2 mph 0.01 in Rain Light Rain
6:55 PM 39.2 °F 29.8 °F 37.4 °F 93% 29.85 in 10.0 mi NNE 18.4 mph 23.0 mph 0.01 in   Overcast
7:15 PM 39.2 °F 29.8 °F 37.0 °F 92% 29.85 in 10.0 mi NE 18.4 mph 27.6 mph N/A   Light Drizzle
7:35 PM 39.2 °F 30.8 °F 37.2 °F 93% 29.84 in 10.0 mi NNE 15.0 mph 21.9 mph N/A Rain Rain
7:55 PM 39.2 °F 30.5 °F 37.4 °F 93% 29.84 in 5.0 mi NNE 16.1 mph 28.8 mph 0.02 in Rain Rain
8:15 PM 39.2 °F 29.8 °F 37.4 °F 93% 29.84 in 5.0 mi NE 18.4 mph 24.2 mph 0.03 in Rain Light Rain
8:35 PM 39.2 °F 29.6 °F 37.4 °F 93% 29.82 in 5.0 mi NNE 19.6 mph 25.3 mph 0.03 in   Drizzle
8:55 PM 39.2 °F 29.8 °F 37.4 °F 93% 29.82 in 10.0 mi NNE 18.4 mph 26.5 mph 0.03 in   Overcast
9:15 PM 39.2 °F 29.6 °F 37.4 °F 93% 29.81 in 10.0 mi NNE 19.6 mph 27.6 mph N/A   Light Drizzle
9:35 PM 39.2 °F 30.2 °F 37.4 °F 93% 29.81 in 10.0 mi NE 17.3 mph 25.3 mph 0.01 in Rain Light Rain
9:55 PM 39.2 °F 30.2 °F 37.4 °F 93% 29.80 in 10.0 mi NNE 17.3 mph 26.5 mph 0.02 in Rain Rain
10:15 PM 39.2 °F 29.3 °F 37.4 °F 93% 29.79 in 10.0 mi NNE 20.7 mph 29.9 mph 0.01 in Rain Light Rain
10:35 PM 39.2 °F 29.3 °F 37.4 °F 93% 29.79 in 10.0 mi NNE 20.7 mph 25.3 mph 0.01 in Rain Rain
10:55 PM 39.4 °F 29.8 °F 37.6 °F 93% 29.78 in 10.0 mi NNE 19.6 mph 26.5 mph 0.02 in   Light Drizzle
11:15 PM 39.4 °F 31.1 °F 37.6 °F 93% 29.79 in 7.0 mi NE 15.0 mph 25.3 mph N/A Rain Rain
11:35 PM 39.2 °F 29.6 °F 37.6 °F 94% 29.75 in 4.0 mi NNE 19.6 mph 25.3 mph 0.07 in Rain Rain
11:55 PM 39.2 °F 29.8 °F 37.6 °F 94% 29.74 in 7.0 mi NNE 18.4 mph 26.5 mph 0.10 in Rain Rain